#timestamp,LO_Frequency,Hit,StdDev 
1589749215.3,286046999.8,N
1589749235.1,286046999.8,N
1589749255.9,286047000.3,N
1589749275.7,286047000.1,N
1589749295.5,286047000.9,N
1589749315.4,286046999.1,N
1589749335.2,286047001.0,N
1589749355.0,286047000.8,N
1589749355.9,286047000.8,N
1589749375.8,286046998.4,N
1589749395.6,286046998.4,N
1589749415.5,286046997.1,N
1589749435.3,286047001.1,N
1589749485.2,286046998.8,E
1589749495.1,286046998.6,N
1589749515.8,286046998.5,P
1589749535.7,286046999.4,P
1589749555.5,286046998.4,Y
1589749575.4,286047001.0,P
1589749595.2,286047000.5,N
1589749615.0,286047004.1,P
1589749615.9,286047004.1,N
1589749635.8,286047007.0,Y
1589749655.6,286047005.5,P
1589749675.5,286047003.3,N
1589749695.3,286047003.0,N
1589749715.1,286047003.6,N
1589749735.9,286046999.9,N
1589749755.7,286047000.9,N
1589749775.5,286046999.9,N
1589749795.4,286047001.3,N
1589749815.2,286047003.5,N
1589749835.1,286047005.0,N
1589749836.0,286047005.0,N
1589749855.8,286047005.9,Y
1589749875.6,286047001.1,P
1589749895.5,286047001.2,N
1589749915.3,286047000.1,N
1589749935.2,286047002.2,N
1589749955.9,286046999.9,N
1589749975.7,286047002.2,N
1589749995.6,286047002.6,N
1589750015.4,286047003.8,Y
1589750035.2,286046999.7,P
1589750055.1,286046998.4,N
1589750056.0,286046998.4,N
1589750075.8,286046999.6,N
1589750095.7,286046997.0,N
1589750115.5,286047001.0,N
1589750135.3,286047001.0,N
1589750155.2,286046999.2,N
1589750175.0,286046996.7,N
1589750175.9,286046996.7,N
1589750195.8,286046999.3,N
1589750215.6,286046996.6,N
1589750235.4,286046997.6,N
1589750255.3,286046995.5,N
1589750275.1,286046995.6,N
1589750295.8,286046995.4,N
1589750315.7,286047000.8,N
1589750335.5,286047000.8,N
1589750355.4,286046999.6,N
1589750375.2,286046997.9,N
1589750395.0,286046996.2,N
1589750395.9,286046996.2,N
1589750415.8,286046995.7,N
1589750435.6,286046997.3,N
1589750455.4,286046995.6,N
1589750475.3,286046995.3,N
1589750495.1,286046995.3,N
1589750515.9,286046998.0,N
1589750535.7,286046995.4,N
1589750555.5,286046997.6,N
1589750575.4,286046996.1,N
1589750595.2,286046993.3,Y
1589750615.1,286046999.3,P
1589750616.0,286046999.3,N
1589750635.8,286046998.8,N
1589750655.6,286046998.6,N
1589750675.5,286046997.9,Y
1589750695.3,286046997.8,P
1589750715.2,286046995.3,P
1589750735.9,286046997.0,N
1589750755.7,286046995.5,Y
1589750775.6,286046999.7,P
1589750795.4,286046999.2,N
1589750815.3,286046999.2,N
1589750835.1,286047000.3,N
1589750836.0,286047000.3,N
1589750855.8,286046998.7,N
1589750875.7,286046998.9,N
1589750895.5,286047001.1,N
1589750915.3,286047001.5,N
1589750935.2,286047000.9,N
1589750955.0,286046998.1,N
1589750955.9,286046998.1,N
1589750975.8,286046998.5,N
1589750995.6,286047000.5,N
1589751015.4,286046999.8,N
1589751035.3,286047001.8,N
1589751055.1,286047001.9,N
1589751075.9,286046999.7,N
1589751095.7,286047001.5,N
1589751115.5,286047000.1,N
1589751135.4,286047002.4,N
1589751155.2,286047002.5,N
1589751175.1,286047002.6,N
1589751176.0,286047002.6,N
1589751195.8,286047002.8,N
1589751215.6,286047001.6,N
1589751235.5,286047001.6,N
1589751255.3,286047002.5,N
1589751275.2,286047000.7,N
1589751295.9,286047000.4,N
1589751315.7,286047002.8,N
1589751335.6,286047002.5,N
1589751355.4,286047002.6,N
1589751375.3,286047001.9,N
1589751395.1,286047001.6,N
1589751396.0,286047001.6,N
1589751415.8,286047001.5,N
1589751435.7,286047002.5,N
1589751455.5,286047001.5,N
1589751475.3,286047004.3,Y
1589751495.2,286047003.2,P
1589751515.0,286047001.3,N
1589751515.9,286047001.3,N
1589751535.8,286047002.1,N
1589751555.6,286047000.3,N
1589751575.4,286047001.1,N
1589751595.3,286046999.0,N
1589751615.1,286046999.9,N
1589751635.9,286046999.8,N
1589751655.7,286047002.8,N
1589751675.5,286047001.7,N
1589751695.4,286047001.6,N
1589751715.2,286047002.5,N
1589751735.0,286047000.3,N
1589751736.0,286047000.3,N
1589751755.8,286047002.5,N
1589751775.6,286047002.8,N
1589751795.5,286047002.8,N
1589751815.3,286047004.3,Y
1589751835.1,286047001.4,P
1589751855.9,286047001.7,P
1589751875.7,286047000.9,P
1589751895.6,286046998.7,Y
1589751915.4,286046998.9,P
1589751935.2,286046998.8,N
1589751955.1,286046996.8,N
1589751956.0,286046996.8,N
1589751975.8,286046998.6,N
1589751995.7,286046998.2,N
1589752015.5,286046999.5,N
1589752035.3,286047001.2,N
1589752055.2,286046999.9,N
1589752075.0,286047001.1,N
1589752075.9,286047001.1,N
1589752095.7,286046998.9,N
1589752115.6,286047001.0,N
1589752135.4,286046999.4,N
1589752155.3,286046996.8,N
1589752175.1,286046996.6,N
1589752195.8,286046999.5,N
1589752215.7,286046997.3,N
1589752235.5,286047000.9,N
1589752255.4,286047000.1,N
1589752275.2,286047002.8,N
1589752295.0,286047000.6,N
1589752295.9,286047000.6,N
1589752315.8,286046999.9,N
1589752335.6,286047002.3,N
1589752355.4,286047001.5,N
1589752375.3,286047004.2,N
1589752395.1,286047001.9,N
1589752415.9,286047002.4,N
1589752435.7,286047002.4,N
1589752455.5,286047001.8,N
1589752475.4,286047000.4,N
1589752495.2,286047000.2,N
1589752515.0,286046998.1,N
1589752516.0,286046998.1,N
1589752535.8,286047000.0,N
1589752555.6,286047000.0,N
1589752575.5,286046998.3,N
1589752595.3,286046998.6,N
1589752615.1,286046999.9,N
1589752635.9,286046998.2,N
1589752655.7,286046998.3,N
1589752675.6,286046998.6,N
1589752695.4,286046996.5,N
1589752715.2,286046998.8,N
1589752735.1,286046998.7,N
1589752736.0,286046998.7,N
1589752755.8,286046996.6,N
1589752775.7,286047001.2,N
1589752795.5,286047000.8,N
